Main page
METAR-TAF:

METAR-TAF

Airports :

Wattisham Flying Station

Wattisham, England

latitude: 52-07N, longitude: 000-58E, elevation: 87 m

Current weather observation

The report was made 54 minutes ago, at 20:50 UTC
Wind 3 kt from the West
Temperature 5°C
Humidity 87%
Pressure 1036 hPa
Visibility 10 km or more

METAR: EGUW 222050Z AUTO 28003KT 9999 OVC020/// 05/03 Q1036

Time: 21:44 (21:44 UTC)


TAF: missing

Weather observations and forecasts of more than 4000 airports (METAR and TAF reports).

The available stations are represented by yellow and red dots on the map.

Hover mouse over dot to see the name of the station.

Then click to see weather observations and forecasts.

To change the map : click on the green buttons with a black cross to zoom in, on the green button with a dash to zoom out, or on the green arrows for adjacent maps.


METAR-TAF: